Location: Banska Bystrica
(0.0000°N, 19.1500°E)
Time: 20:48:42
(UTC+02:00)

Ariane H10-3 - Visible Passes

Search period start: 03 August 2020 00:00
Search period end: 13 August 2020 00:00
Orbit: 301 x 28708 km, 6.8° (Epoch: 02 August)

Date Brightness Start Highest point End Pass type
(mag) Time Alt. Az. Time Alt. Az. Time Alt. Az.
06 Aug 5.6 03:17:31 13° E 03:17:31 13° E 03:18:46 10° E visible
06 Aug 5.9 12:02:58 10° W 19:19:09 82° N 19:35:40 10° ENE visible
07 Aug 3.6 04:19:11 60° E 04:19:11 60° E 04:33:24 10° E visible
07 Aug 5.1 13:16:51 10° W 20:30:26 75° N 20:37:55 29° ENE visible
08 Aug 3.7 05:20:50 34° W 05:23:52 85° S 12:04:14 10° E visible
08 Aug 4.5 14:41:30 10° W 16:15:17 25° W 21:39:31 62° NNE visible
09 Aug 5.3 22:21:49 10° W 22:41:07 37° WNW 22:41:07 37° WNW visible
10 Aug 6.4 23:42:01 10° WNW 23:42:42 11° WNW 23:42:42 11° WNW visible
